PY2UTU-WX Weather Reports


time (UTC)temp
C
wind
direction
speed
KPH
gust
KPH
rain 1hr
cm
rain 24hr
cm
rain mn
cm
humidity
%
barometer
mb
20260510022729 18 0 0.0 0.0 0.00 0.00 0.00 98 924.1
20260510021229 19 0 0.0 0.0 0.00 0.00 0.00 98 924.2
20260510015729 20 0 0.0 0.0 0.00 0.00 0.00 98 924.1
20260510014229 20 0 0.0 0.0 0.00 0.00 0.00 98 924.0
20260510012729 20 0 0.0 0.0 0.00 0.00 0.00 98 924.0
20260510011229 20 0 0.0 0.0 0.00 0.00 0.00 98 923.7
20260510005729 20 0 0.0 0.0 0.00 0.00 0.00 98 923.7
20260510004228 20 0 0.0 0.0 0.00 0.00 0.00 98 923.7
20260510002728 20 0 0.0 0.0 0.00 0.00 0.00 98 923.5
20260510001228 20 0 0.0 0.0 0.00 0.00 0.00 98 923.5
20260509235728 20 0 0.0 0.0 0.00 0.00 0.00 98 923.6
20260509234229 20 0 0.0 0.0 0.00 0.00 0.00 98 923.8
20260509232728 21 0 0.0 0.0 0.00 0.00 0.00 98 923.7
20260509231228 20 0 0.0 0.0 0.00 0.00 0.00 98 923.5
20260509225729 21 0 0.0 0.0 0.00 0.00 0.00 98 923.3
20260509224228 21 0 0.0 0.0 0.00 0.00 0.00 98 923.1
20260509222728 21 0 0.0 0.0 0.00 0.00 0.00 98 922.9
20260509221228 21 0 0.0 0.0 0.00 0.00 0.00 98 922.7
20260509215729 21 0 0.0 0.0 0.00 0.00 0.00 98 922.5
20260509214229 22 0 0.0 0.0 0.00 0.00 0.00 98 922.6
20260509212729 22 0 0.0 0.0 0.00 0.00 0.00 98 922.4
20260509211229 25 0 0.0 0.0 0.00 0.00 0.00 98 922.4
20260509205728 26 0 0.0 0.0 0.00 0.00 0.00 93 922.2
20260509204228 26 0 0.0 0.0 0.00 0.00 0.00 92 922.1
20260509202728 26 0 0.0 0.0 0.00 0.00 0.00 92 921.8
20260509201228 26 0 0.0 0.0 0.00 0.00 0.00 91 921.5
20260509195728 27 0 0.0 0.0 0.00 0.00 0.00 89 921.4
20260509194228 28 0 0.0 0.0 0.00 0.00 0.00 87 921.2
20260509192728 28 0 0.0 0.0 0.00 0.00 0.00 87 921.0
20260509191229 28 0 0.0 0.0 0.00 0.00 0.00 88 920.9
20260509185728 27 0 0.0 0.0 0.00 0.00 0.00 89 920.9
20260509184229 28 0 0.0 0.0 0.00 0.00 0.00 90 921.0
20260509182728 28 0 0.0 0.0 0.00 0.00 0.00 89 921.2
20260509181228 28 0 0.0 0.0 0.00 0.00 0.00 90 921.2
20260509175728 28 0 0.0 0.0 0.00 0.00 0.00 91 921.3
20260509174228 29 0 0.0 0.0 0.00 0.00 0.00 89 921.2
20260509172729 28 0 0.0 0.0 0.00 0.00 0.00 93 921.4
20260509171228 28 0 0.0 0.0 0.00 0.00 0.00 91 921.5
20260509165728 28 0 0.0 0.0 0.00 0.00 0.00 90 921.6
20260509164228 28 0 0.0 0.0 0.00 0.00 0.00 95 921.7
20260509162728 28 0 0.0 0.0 0.00 0.00 0.00 91 921.8
20260509161228 28 0 0.0 0.0 0.00 0.00 0.00 92 921.9
20260509155728 28 0 0.0 0.0 0.00 0.00 0.00 94 922.0
20260509154228 28 0 0.0 0.0 0.00 0.00 0.00 93 922.0
20260509152728 28 0 0.0 0.0 0.00 0.00 0.00 92 922.2
20260509151228 28 0 0.0 0.0 0.00 0.00 0.00 92 922.5
20260509145728 28 0 0.0 0.0 0.00 0.00 0.00 94 922.7
20260509144228 27 0 0.0 0.0 0.00 0.00 0.00 96 922.9
20260509142728 27 0 0.0 0.0 0.00 0.00 0.00 98 923.2
20260509141228 26 0 0.0 0.0 0.00 0.00 0.00 98 923.2
20260509135728 26 0 0.0 0.0 0.00 0.00 0.00 98 923.3
20260509134228 26 0 0.0 0.0 0.00 0.00 0.00 98 923.3
20260509132728 24 0 0.0 0.0 0.00 0.00 0.00 98 923.3
20260509131228 25 0 0.0 0.0 0.00 0.00 0.00 98 923.4
20260509125728 26 0 0.0 0.0 0.00 0.00 0.00 96 923.5
20260509124228 26 0 0.0 0.0 0.00 0.00 0.00 97 923.5
20260509122728 26 0 0.0 0.0 0.00 0.00 0.00 98 923.0
20260509121228 25 0 0.0 0.0 0.00 0.00 0.00 98 923.0
20260509115728 24 0 0.0 0.0 0.00 0.00 0.00 98 922.9
20260509114228 24 0 0.0 0.0 0.00 0.00 0.00 98 922.7
20260509112728 25 0 0.0 0.0 0.00 0.00 0.00 98 922.6
20260509111228 26 0 0.0 0.0 0.00 0.00 0.00 97 922.3
20260509105728 25 0 0.0 0.0 0.00 0.00 0.00 98 922.0
20260509104228 23 0 0.0 0.0 0.00 0.00 0.00 98 921.8
20260509102728 22 0 0.0 0.0 0.00 0.00 0.00 98 921.5
20260509101228 23 0 0.0 0.0 0.00 0.00 0.00 98 921.4
20260509095728 24 0 0.0 0.0 0.00 0.00 0.00 98 921.1
20260509094228 24 0 0.0 0.0 0.00 0.00 0.00 98 920.8
20260509092728 23 0 0.0 0.0 0.00 0.00 0.00 98 920.7
20260509091228 23 0 0.0 0.0 0.00 0.00 0.00 98 920.5
20260509085728 24 0 0.0 0.0 0.00 0.00 0.00 98 920.2
20260509084228 23 0 0.0 0.0 0.00 0.00 0.00 98 920.0
20260509082728 23 0 0.0 0.0 0.00 0.00 0.00 98 919.9
20260509081228 23 0 0.0 0.0 0.00 0.00 0.00 98 919.7
20260509075728 23 0 0.0 0.0 0.00 0.00 0.00 98 919.6
20260509074228 24 0 0.0 0.0 0.00 0.00 0.00 98 919.7
20260509072728 25 0 0.0 0.0 0.00 0.00 0.00 98 919.9
20260509071228 25 0 0.0 0.0 0.00 0.00 0.00 98 919.9
20260509065728 24 0 0.0 0.0 0.00 0.00 0.00 98 919.9
20260509064228 24 0 0.0 0.0 0.00 0.00 0.00 98 920.0
20260509062728 24 0 0.0 0.0 0.00 0.00 0.00 98 920.0
20260509061228 24 0 0.0 0.0 0.00 0.00 0.00 98 920.0
20260509055728 25 0 0.0 0.0 0.00 0.00 0.00 98 920.0
20260509054228 25 0 0.0 0.0 0.00 0.00 0.00 98 920.1
20260509052728 25 0 0.0 0.0 0.00 0.00 0.00 98 920.2
20260509051229 25 0 0.0 0.0 0.00 0.00 0.00 98 920.1
20260509045728 25 0 0.0 0.0 0.00 0.00 0.00 98 920.2
20260509044228 25 0 0.0 0.0 0.00 0.00 0.00 98 920.2
20260509042728 24 0 0.0 0.0 0.00 0.00 0.00 98 920.2
20260509041228 24 0 0.0 0.0 0.00 0.00 0.00 98 920.4
20260509035728 24 0 0.0 0.0 0.00 0.00 0.00 98 920.3
20260509034228 23 0 0.0 0.0 0.00 0.00 0.00 98 920.4
20260509032728 24 0 0.0 0.0 0.00 0.00 0.00 98 920.2
20260509031228 24 0 0.0 0.0 0.00 0.00 0.00 98 920.2
20260509025728 23 0 0.0 0.0 0.00 0.00 0.00 98 920.1
20260509024228 23 0 0.0 0.0 0.00 0.00 0.00 98 920.3